UAL314 KDEN-KMSN

Flight info

Callsign UAL314
Flight time N/A
Altitude 37000
Route EEONS8 WYNDM OBH ALO MSN
Aircraft B739/M-SDE2E3FGHIRWXY/LB1

Departure

Time N/A
Airport Denver International Airport (KDEN)

Arrival

Time 2026-04-26 17:52
Airport Dane County Regional Truax Field (KMSN)
Time Latitude Longitude Altitude Speed Heading
2026-04-26 16:22 40.65515 -100.61630 36954 ft 500 kts 66°
2026-04-26 16:22 40.66906 -100.57435 36956 ft 499 kts 66°
2026-04-26 16:23 40.69657 -100.49117 36957 ft 498 kts 66°
2026-04-26 16:23 40.72413 -100.40762 36956 ft 497 kts 66°
2026-04-26 16:24 40.75157 -100.32419 36953 ft 496 kts 67°
2026-04-26 16:24 40.77891 -100.24077 36952 ft 495 kts 67°
2026-04-26 16:25 40.80594 -100.15808 36936 ft 493 kts 67°
2026-04-26 16:25 40.83298 -100.07511 36954 ft 492 kts 67°
2026-04-26 16:26 40.85542 -100.00606 36934 ft 492 kts 67°
2026-04-26 16:26 40.88685 -99.90905 36939 ft 491 kts 67°
2026-04-26 16:27 40.91362 -99.82617 36921 ft 490 kts 67°
2026-04-26 16:27 40.94011 -99.74387 36941 ft 490 kts 67°
2026-04-26 16:28 40.96675 -99.66089 36936 ft 490 kts 68°
2026-04-26 16:28 40.99331 -99.57790 36957 ft 490 kts 68°
2026-04-26 16:29 41.01984 -99.49474 36950 ft 490 kts 68°
2026-04-26 16:29 41.04633 -99.41146 36956 ft 491 kts 68°
2026-04-26 16:30 41.07262 -99.32853 36966 ft 492 kts 68°
2026-04-26 16:30 41.09907 -99.24485 36970 ft 493 kts 68°
2026-04-26 16:31 41.12549 -99.16102 36962 ft 493 kts 68°
2026-04-26 16:31 41.15189 -99.07698 36968 ft 494 kts 68°
2026-04-26 16:32 41.17379 -99.00708 36970 ft 494 kts 68°
2026-04-26 16:32 41.20441 -98.90903 36970 ft 494 kts 68°
2026-04-26 16:33 41.23069 -98.82458 36970 ft 495 kts 68°
2026-04-26 16:33 41.25692 -98.74005 36974 ft 495 kts 68°
2026-04-26 16:34 41.28311 -98.65536 36977 ft 495 kts 68°
2026-04-26 16:34 41.30906 -98.57116 36982 ft 495 kts 68°
2026-04-26 16:35 41.33511 -98.48640 36976 ft 495 kts 68°
2026-04-26 16:35 41.36112 -98.40150 36980 ft 495 kts 68°
2026-04-26 16:36 41.38548 -98.31589 36977 ft 495 kts 73°
2026-04-26 16:36 41.40544 -98.22825 36984 ft 494 kts 75°
2026-04-26 16:37 41.42446 -98.14091 36974 ft 494 kts 74°
2026-04-26 16:37 41.44058 -98.06786 36977 ft 494 kts 74°
2026-04-26 16:38 41.46355 -97.96513 36979 ft 495 kts 74°
2026-04-26 16:38 41.48330 -97.87695 36970 ft 498 kts 74°
2026-04-26 16:39 41.50304 -97.78849 36977 ft 497 kts 74°
2026-04-26 16:39 41.52251 -97.70081 36987 ft 496 kts 74°
2026-04-26 16:40 41.54201 -97.61262 36986 ft 495 kts 74°
2026-04-26 16:40 41.56139 -97.52454 36988 ft 494 kts 74°
2026-04-26 16:41 41.58068 -97.43654 36990 ft 494 kts 74°
2026-04-26 16:41 41.59992 -97.34846 36994 ft 493 kts 74°
2026-04-26 16:42 41.61893 -97.26104 36990 ft 493 kts 74°
2026-04-26 16:42 41.63800 -97.17294 36993 ft 493 kts 74°
2026-04-26 16:43 41.65701 -97.08483 36983 ft 493 kts 74°
2026-04-26 16:43 41.67596 -96.99661 36987 ft 493 kts 74°
2026-04-26 16:44 41.69470 -96.90896 36980 ft 493 kts 74°
2026-04-26 16:44 41.71351 -96.82068 36978 ft 493 kts 74°
2026-04-26 16:45 41.73223 -96.73242 36974 ft 493 kts 74°
2026-04-26 16:45 41.75089 -96.64409 36972 ft 493 kts 74°
2026-04-26 16:46 41.76947 -96.55576 36971 ft 493 kts 74°
2026-04-26 16:46 41.78785 -96.46801 36972 ft 492 kts 74°
2026-04-26 16:47 41.80624 -96.37981 36960 ft 492 kts 75°
2026-04-26 16:47 41.82457 -96.29155 36964 ft 491 kts 75°
2026-04-26 16:48 41.84280 -96.20339 36960 ft 490 kts 75°
2026-04-26 16:48 41.86082 -96.11590 36966 ft 490 kts 75°
2026-04-26 16:49 41.87888 -96.02784 36959 ft 489 kts 75°
2026-04-26 16:49 41.89684 -95.93988 36969 ft 489 kts 75°
2026-04-26 16:50 41.91479 -95.85160 36961 ft 491 kts 75°
2026-04-26 16:50 41.92968 -95.77805 36967 ft 492 kts 75°
2026-04-26 16:51 41.94757 -95.68931 36973 ft 493 kts 75°
2026-04-26 16:51 41.96831 -95.58599 36973 ft 493 kts 75°
2026-04-26 16:52 41.98021 -95.52648 36971 ft 493 kts 75°
2026-04-26 16:52 42.00079 -95.42312 36970 ft 492 kts 75°
2026-04-26 16:53 42.01839 -95.33430 36972 ft 491 kts 75°
2026-04-26 16:53 42.03873 -95.23117 36973 ft 490 kts 75°
2026-04-26 16:54 42.05331 -95.15693 36979 ft 490 kts 75°
2026-04-26 16:54 42.07050 -95.06899 36989 ft 489 kts 75°
2026-04-26 16:55 42.08772 -94.98054 36981 ft 489 kts 75°
2026-04-26 16:55 42.10488 -94.89197 36984 ft 489 kts 75°
2026-04-26 16:56 42.13044 -94.75930 36983 ft 491 kts 75°
2026-04-26 16:57 42.14751 -94.67020 36993 ft 492 kts 75°
2026-04-26 16:57 42.17303 -94.53627 36999 ft 492 kts 75°
2026-04-26 16:58 42.18710 -94.46201 37013 ft 492 kts 75°
2026-04-26 16:59 42.21508 -94.31345 37030 ft 491 kts 75°
2026-04-26 17:00 42.24845 -94.13482 37029 ft 491 kts 75°
2026-04-26 17:00 42.27331 -94.00063 37001 ft 491 kts 75°
2026-04-26 17:01 42.28966 -93.91183 37011 ft 491 kts 75°
2026-04-26 17:01 42.30606 -93.82236 36999 ft 491 kts 75°
2026-04-26 17:02 42.32240 -93.73277 36992 ft 491 kts 75°
2026-04-26 17:02 42.33866 -93.64323 37005 ft 490 kts 75°
2026-04-26 17:03 42.35485 -93.55362 36995 ft 491 kts 75°
2026-04-26 17:03 42.37086 -93.46454 37018 ft 491 kts 75°
2026-04-26 17:04 42.38691 -93.37487 37025 ft 490 kts 75°
2026-04-26 17:04 42.40287 -93.28524 37026 ft 490 kts 75°
2026-04-26 17:05 42.41865 -93.19619 37026 ft 490 kts 76°
2026-04-26 17:05 42.43447 -93.10648 37027 ft 490 kts 76°
2026-04-26 17:06 42.45020 -93.01682 37026 ft 490 kts 76°
2026-04-26 17:06 42.46587 -92.92706 37026 ft 490 kts 76°
2026-04-26 17:07 42.48147 -92.83724 37028 ft 490 kts 76°
2026-04-26 17:07 42.49692 -92.74791 37029 ft 490 kts 76°
2026-04-26 17:08 42.51240 -92.65789 37031 ft 490 kts 76°
2026-04-26 17:08 42.52781 -92.56782 37027 ft 491 kts 76°
2026-04-26 17:09 42.54057 -92.49289 37029 ft 491 kts 76°
2026-04-26 17:09 42.55845 -92.38738 37028 ft 491 kts 76°
2026-04-26 17:10 42.57281 -92.29752 37027 ft 491 kts 77°
2026-04-26 17:10 42.58681 -92.20689 37032 ft 491 kts 77°
2026-04-26 17:11 42.59383 -92.16140 36707 ft 497 kts 77°
2026-04-26 17:11 42.60096 -92.11525 36075 ft 500 kts 77°
2026-04-26 17:11 42.60808 -92.06914 35384 ft 499 kts 77°
2026-04-26 17:11 42.61515 -92.02334 34890 ft 493 kts 77°
2026-04-26 17:12 42.62906 -91.93301 33835 ft 485 kts 78°
2026-04-26 17:12 42.63581 -91.88900 33275 ft 480 kts 78°
2026-04-26 17:13 42.64920 -91.80128 32283 ft 469 kts 77°
2026-04-26 17:13 42.65578 -91.75806 31792 ft 464 kts 77°
2026-04-26 17:13 42.66867 -91.67295 30826 ft 455 kts 77°
2026-04-26 17:14 42.67500 -91.63097 30353 ft 451 kts 77°
2026-04-26 17:14 42.68735 -91.54880 29361 ft 442 kts 77°
2026-04-26 17:14 42.69344 -91.50816 28894 ft 436 kts 78°
2026-04-26 17:15 42.70536 -91.42826 27971 ft 426 kts 78°
2026-04-26 17:15 42.71121 -91.38891 27508 ft 422 kts 78°
2026-04-26 17:15 42.71698 -91.34999 27064 ft 418 kts 78°
2026-04-26 17:16 42.72269 -91.31138 26609 ft 414 kts 78°
2026-04-26 17:16 42.72833 -91.27319 26163 ft 411 kts 79°
2026-04-26 17:16 42.73391 -91.23526 25728 ft 408 kts 79°
2026-04-26 17:16 42.73937 -91.19810 25300 ft 405 kts 79°
2026-04-26 17:17 42.74484 -91.16072 24866 ft 402 kts 79°
2026-04-26 17:17 42.75028 -91.12351 24437 ft 399 kts 79°
2026-04-26 17:17 42.75566 -91.08661 24006 ft 397 kts 80°
2026-04-26 17:17 42.76099 -91.04994 23570 ft 394 kts 80°
2026-04-26 17:18 42.76628 -91.01345 23070 ft 392 kts 80°
2026-04-26 17:18 42.77152 -90.97724 22633 ft 388 kts 80°
2026-04-26 17:18 42.77670 -90.94138 22198 ft 384 kts 80°
2026-04-26 17:18 42.78182 -90.90585 21771 ft 381 kts 80°
2026-04-26 17:19 42.79184 -90.83605 20923 ft 376 kts 80°
2026-04-26 17:19 42.79681 -90.80127 20502 ft 373 kts 80°
2026-04-26 17:19 42.80202 -90.76687 20193 ft 368 kts 75°
2026-04-26 17:20 42.81141 -90.73482 19944 ft 362 kts 62°
2026-04-26 17:20 42.81989 -90.71548 19785 ft 358 kts 57°
2026-04-26 17:20 42.83803 -90.67774 19391 ft 354 kts 56°
2026-04-26 17:20 42.85160 -90.64986 19017 ft 353 kts 56°
2026-04-26 17:21 42.86513 -90.62198 18636 ft 352 kts 56°
2026-04-26 17:21 42.87844 -90.59440 18121 ft 355 kts 57°
2026-04-26 17:21 42.89196 -90.56624 17655 ft 355 kts 57°
2026-04-26 17:21 42.90541 -90.53811 17225 ft 353 kts 57°
2026-04-26 17:22 42.91878 -90.51005 16815 ft 352 kts 57°
2026-04-26 17:22 42.93209 -90.48206 16404 ft 351 kts 57°
2026-04-26 17:22 42.94532 -90.45420 15999 ft 349 kts 57°
2026-04-26 17:22 42.95849 -90.42642 15596 ft 348 kts 57°
2026-04-26 17:23 42.97161 -90.39872 15202 ft 347 kts 57°
2026-04-26 17:23 42.98465 -90.37116 14804 ft 345 kts 57°
2026-04-26 17:23 42.99749 -90.34399 14415 ft 344 kts 58°
2026-04-26 17:23 43.01045 -90.31654 14022 ft 344 kts 58°
2026-04-26 17:24 43.02340 -90.28911 13587 ft 343 kts 58°
2026-04-26 17:24 43.03629 -90.26175 13155 ft 342 kts 58°
2026-04-26 17:24 43.04913 -90.23449 12770 ft 341 kts 58°
2026-04-26 17:24 43.06197 -90.20722 12318 ft 341 kts 58°
2026-04-26 17:25 43.07475 -90.18001 11930 ft 340 kts 58°
2026-04-26 17:25 43.08753 -90.15292 11510 ft 339 kts 58°
2026-04-26 17:25 43.10016 -90.12597 11106 ft 332 kts 58°
2026-04-26 17:25 43.11226 -90.10012 10719 ft 323 kts 58°
2026-04-26 17:26 43.12423 -90.07455 10333 ft 316 kts 58°
2026-04-26 17:26 43.13576 -90.04971 10110 ft 302 kts 60°
2026-04-26 17:26 43.14543 -90.02455 9861 ft 296 kts 65°
2026-04-26 17:26 43.15412 -89.99909 9548 ft 293 kts 67°
2026-04-26 17:27 43.16254 -89.97391 9294 ft 289 kts 69°
2026-04-26 17:27 43.17087 -89.94903 9036 ft 286 kts 68°
2026-04-26 17:27 43.17919 -89.92440 8772 ft 283 kts 68°
2026-04-26 17:27 43.18747 -89.90006 8518 ft 280 kts 68°
2026-04-26 17:28 43.19557 -89.87632 8266 ft 277 kts 68°
2026-04-26 17:28 43.20372 -89.85258 8012 ft 274 kts 68°
2026-04-26 17:28 43.21182 -89.82905 7760 ft 272 kts 68°
2026-04-26 17:28 43.21985 -89.80572 7521 ft 269 kts 68°
2026-04-26 17:29 43.22782 -89.78259 7304 ft 267 kts 68°
2026-04-26 17:29 43.23306 -89.76734 7133 ft 267 kts 68°
2026-04-26 17:29 43.24359 -89.73667 6829 ft 262 kts 69°
2026-04-26 17:29 43.25120 -89.71433 6620 ft 256 kts 69°
2026-04-26 17:30 43.25883 -89.69244 6368 ft 253 kts 68°
2026-04-26 17:30 43.26618 -89.67117 6106 ft 246 kts 68°
2026-04-26 17:30 43.27341 -89.65020 5815 ft 239 kts 69°
2026-04-26 17:30 43.28040 -89.62987 5583 ft 233 kts 70°
2026-04-26 17:31 43.28720 -89.60990 5301 ft 229 kts 69°
2026-04-26 17:31 43.29387 -89.59033 5048 ft 223 kts 69°
2026-04-26 17:31 43.30038 -89.57125 4808 ft 220 kts 69°
2026-04-26 17:31 43.30685 -89.55230 4542 ft 218 kts 69°
2026-04-26 17:32 43.31323 -89.53360 4299 ft 215 kts 69°
2026-04-26 17:32 43.31954 -89.51510 4042 ft 213 kts 69°
2026-04-26 17:32 43.32570 -89.49700 3798 ft 211 kts 69°
2026-04-26 17:32 43.33189 -89.47889 3550 ft 209 kts 69°
2026-04-26 17:33 43.33804 -89.46086 3289 ft 207 kts 69°
2026-04-26 17:33 43.34404 -89.44326 3109 ft 198 kts 69°
2026-04-26 17:33 43.34967 -89.42674 3010 ft 183 kts 69°
2026-04-26 17:34 43.36034 -89.39534 3000 ft 181 kts 70°
2026-04-26 17:34 43.36255 -89.37865 2996 ft 178 kts 96°
2026-04-26 17:34 43.36024 -89.36220 2994 ft 174 kts 113°
2026-04-26 17:34 43.35397 -89.34859 2990 ft 171 kts 133°
2026-04-26 17:35 43.34412 -89.33918 2924 ft 177 kts 161°
2026-04-26 17:35 43.33189 -89.33700 2901 ft 178 kts 172°
2026-04-26 17:35 43.31953 -89.33541 2798 ft 179 kts 172°
2026-04-26 17:35 43.30704 -89.33445 2726 ft 179 kts 175°
2026-04-26 17:36 43.29465 -89.33454 2699 ft 178 kts 177°
2026-04-26 17:36 43.28228 -89.33500 2696 ft 181 kts 177°
2026-04-26 17:36 43.26956 -89.33556 2588 ft 184 kts 178°
2026-04-26 17:36 43.25704 -89.33614 2516 ft 181 kts 178°
2026-04-26 17:37 43.24446 -89.33672 2501 ft 181 kts 177°
2026-04-26 17:37 43.23186 -89.33729 2509 ft 183 kts 178°
2026-04-26 17:37 43.21896 -89.33787 2318 ft 188 kts 177°
2026-04-26 17:38 43.19316 -89.33905 1802 ft 181 kts 177°
2026-04-26 17:38 43.18062 -89.33958 1550 ft 183 kts 176°
2026-04-26 17:38 43.16782 -89.33990 1317 ft 184 kts 178°
2026-04-26 17:38 43.15483 -89.34060 1594 ft 199 kts 178°
2026-04-26 17:39 43.14090 -89.34128 2494 ft 204 kts 178°
2026-04-26 17:39 43.12714 -89.34232 2837 ft 203 kts 180°
2026-04-26 17:39 43.11320 -89.34403 2734 ft 196 kts 182°
2026-04-26 17:39 43.09940 -89.34598 2641 ft 209 kts 181°
2026-04-26 17:40 43.08447 -89.34813 2586 ft 219 kts 182°
2026-04-26 17:40 43.07438 -89.34891 2520 ft 219 kts 177°
2026-04-26 17:40 43.05444 -89.34800 2609 ft 211 kts 171°
2026-04-26 17:40 43.03983 -89.34598 2749 ft 213 kts 171°
2026-04-26 17:41 43.02500 -89.34427 2763 ft 212 kts 172°
2026-04-26 17:41 43.01040 -89.34295 2841 ft 209 kts 173°
2026-04-26 17:41 42.99596 -89.34179 2972 ft 209 kts 174°
2026-04-26 17:41 42.98183 -89.33758 3019 ft 208 kts 148°
2026-04-26 17:42 42.97191 -89.32354 2996 ft 205 kts 115°
2026-04-26 17:42 42.97009 -89.30457 3006 ft 206 kts 83°
2026-04-26 17:42 42.97364 -89.28568 2999 ft 210 kts 76°
2026-04-26 17:42 42.97999 -89.26742 2968 ft 217 kts 51°
2026-04-26 17:43 42.99256 -89.25625 3024 ft 223 kts 18°
2026-04-26 17:43 43.00779 -89.25404 3010 ft 215 kts
2026-04-26 17:43 43.02233 -89.25378 2980 ft 206 kts
2026-04-26 17:43 43.03662 -89.25347 2979 ft 205 kts
2026-04-26 17:44 43.05070 -89.25325 3040 ft 203 kts
2026-04-26 17:44 43.06499 -89.25314 3026 ft 205 kts
2026-04-26 17:44 43.07937 -89.25313 2991 ft 205 kts
2026-04-26 17:44 43.09349 -89.25307 3004 ft 201 kts
2026-04-26 17:45 43.10770 -89.25307 3018 ft 208 kts
2026-04-26 17:45 43.12192 -89.25296 2996 ft 205 kts
2026-04-26 17:45 43.13603 -89.25279 2994 ft 202 kts
2026-04-26 17:45 43.15018 -89.25263 2986 ft 206 kts
2026-04-26 17:46 43.16454 -89.25257 2887 ft 204 kts
2026-04-26 17:46 43.17828 -89.25264 2818 ft 191 kts
2026-04-26 17:46 43.19107 -89.25273 2744 ft 178 kts
2026-04-26 17:46 43.20344 -89.25290 2679 ft 179 kts
2026-04-26 17:47 43.21584 -89.25304 2585 ft 183 kts
2026-04-26 17:47 43.22444 -89.25319 2544 ft 181 kts
2026-04-26 17:47 43.24043 -89.25385 2517 ft 166 kts 356°
2026-04-26 17:47 43.25003 -89.26160 2482 ft 166 kts 306°
2026-04-26 17:48 43.25302 -89.27692 2538 ft 170 kts 266°
2026-04-26 17:48 43.25290 -89.29296 2501 ft 164 kts 263°
2026-04-26 17:48 43.25047 -89.30787 2488 ft 161 kts 251°
2026-04-26 17:48 43.24724 -89.32258 2465 ft 158 kts 238°
2026-04-26 17:49 43.23912 -89.33096 2538 ft 146 kts 189°
2026-04-26 17:49 43.22903 -89.33495 2481 ft 154 kts 188°
2026-04-26 17:49 43.21863 -89.33718 2314 ft 149 kts 182°
2026-04-26 17:49 43.20858 -89.33833 2135 ft 145 kts 177°
2026-04-26 17:50 43.19850 -89.33888 1902 ft 147 kts 176°
2026-04-26 17:50 43.18828 -89.33925 1721 ft 145 kts 174°
2026-04-26 17:50 43.17844 -89.33967 1515 ft 139 kts 176°
2026-04-26 17:50 43.16886 -89.34025 1306 ft 138 kts 176°
2026-04-26 17:51 43.15930 -89.34067 1113 ft 139 kts 176°
2026-04-26 17:51 43.14947 -89.34104 939 ft 142 kts 176°
2026-04-26 17:51 43.14010 -89.34144 871 ft 126 kts 180°
2026-04-26 17:51 43.13347 -89.34176 870 ft 65 kts 182°
2026-04-26 17:52 43.13034 -89.34191 873 ft 35 kts 182°
2026-04-26 17:52 43.12865 -89.34198 872 ft 15 kts 181°
2026-04-26 17:52 43.12765 -89.34221 871 ft 14 kts 215°
2026-04-26 17:52 43.12741 -89.34346 873 ft 14 kts 269°
2026-04-26 17:53 43.12781 -89.34451 874 ft 13 kts 343°
2026-04-26 17:53 43.12871 -89.34456 874 ft 13 kts
2026-04-26 17:53 43.12959 -89.34451 872 ft 12 kts
2026-04-26 17:54 43.13128 -89.34430 873 ft 12 kts
2026-04-26 17:54 43.13210 -89.34417 871 ft 12 kts
2026-04-26 17:54 43.13305 -89.34399 867 ft 15 kts
2026-04-26 17:54 43.13404 -89.34351 864 ft 15 kts 26°
2026-04-26 17:55 43.13497 -89.34320 857 ft 11 kts 358°
2026-04-26 17:55 43.13542 -89.34388 863 ft 7 kts 266°
2026-04-26 17:55 43.13532 -89.34450 855 ft 7 kts 266°
2026-04-26 17:55 43.13532 -89.34494 855 ft 2 kts 271°
2026-04-26 17:56 43.13532 -89.34497 855 ft 0 kts 271°